Flag for U.S.A. Weather past 2 weeks in Topeka, Kansas, U.S.A.

Now
73 °F

Sunny.


Feels Like: 76 °F
Forecast: 50 / 83 °F
Wind: 9 mph from Southeast

Location: Philip Billard Municipal Airport

Current Time: Mar 31, 2015 at 7:46:55 PM

Latest Report: Mar 31, 2015 at 6:53 PM


Visibility: 10 mi

Pressure: 29.90 "Hg

Humidity: 24%

Dew point: 34 °F

Location of TopekaLocation

Historic Weather in Topeka — Graph

°F

Topeka temperature yesterday

Maximum temperature yesterday: 75 °F (at 5:53 PM)
Minimum temperature yesterday: 34 °F (at 4:53 AM)
Average temperature yesterday: 56 °F

Past Weeks' High & Low Weather Summary

 TemperatureHumidityPressure
High81 °F (Mar 16, 6:53 PM)97% (Mar 25, 9:53 AM)30.40 "Hg (Mar 25, 9:53 AM)
Low29 °F (Mar 20, 5:53 AM)16% (Mar 30, 3:53 PM)29.80 "Hg (Mar 24, 2:53 PM)
Average49 °F59%30.09 "Hg
* Reported Mar 16 6:53 PM — Mar 31 6:53 PM, Topeka, Weather by CustomWeather, © 2015

Note: Actual official high and low records may vary slightly from our data, if they occured in-between our weather recording intervals... More about our weather records

Advertising

Topeka weather history for previous 24 hours

 ConditionsComfort  
Time TempWeatherWind HumidityBarometerVisibility
6:53 PM
Tue, Mar 31
73 °FSunny.9 mph24%29.90 "Hg10 mi
5:53 PM76 °FSunny.12 mph22%29.90 "Hg10 mi
4:53 PM78 °FSunny.7 mph19%29.90 "Hg10 mi
3:53 PM78 °FSunny.10 mph19%29.92 "Hg10 mi
2:53 PM77 °FSunny.9 mph19%29.94 "Hg10 mi
1:53 PM76 °FSunny.10 mph19%29.97 "Hg10 mi
12:53 PM75 °FSunny.10 mph19%29.99 "Hg10 mi
11:53 AM72 °FSunny.9 mph22%30.01 "Hg10 mi
10:53 AM68 °FSunny.14 mph30%30.02 "Hg10 mi
9:53 AM63 °FSunny.3 mph41%30.01 "Hg10 mi
8:53 AM55 °FSunny.6 mph55%30.00 "Hg10 mi
7:53 AM48 °FClear.3 mph66%29.98 "Hg10 mi
6:53 AM42 °FClear.No wind79%29.96 "Hg8 mi
5:53 AM42 °FClear.3 mph79%29.93 "Hg7 mi
4:53 AM47 °FClear.No wind71%29.92 "Hg6 mi
3:53 AM45 °FClear.No wind76%29.91 "Hg6 mi
2:53 AM46 °FClear.No wind71%29.93 "Hg6 mi
1:53 AM51 °FClear.No wind61%29.95 "Hg6 mi
12:53 AM53 °FClear.No wind56%29.94 "Hg6 mi
11:53 PM
Mon, Mar 30
59 °FClear.No wind41%29.94 "Hg6 mi
10:53 PM61 °FClear.7 mph38%29.94 "Hg8 mi
9:53 PM62 °FClear.6 mph37%29.95 "Hg10 mi
8:53 PM65 °FClear.7 mph32%29.95 "Hg10 mi
7:53 PM68 °FSunny.7 mph28%29.94 "Hg10 mi
Weather by CustomWeather, © 2015

See weather overviewHow to use our weather pages